TimeEDT,TemperatureF,Dew PointF,Humidity,Sea Level PressureIn,VisibilityMPH,Wind Direction,Wind SpeedMPH,Gust SpeedMPH,PrecipitationIn,Events,Conditions,WindDirDegrees,DateUTC
12:53 AM,81.5,73.0,75,30.06,10.0,SE,4.6,-,N/A,,Partly Cloudy,140,2013-06-16 04:53:00
1:53 AM,81.1,72.5,75,30.05,10.0,SE,4.6,-,N/A,,Partly Cloudy,140,2013-06-16 05:53:00
2:53 AM,79.5,72.9,80,30.04,10.0,SE,3.5,-,N/A,,Partly Cloudy,140,2013-06-16 06:53:00
3:53 AM,79.2,73.9,84,30.03,-9999.0,SE,4.6,-,N/A,,Partly Cloudy,140,2013-06-16 07:53:00
4:53 AM,78.8,74.1,85,30.02,10.0,SE,3.5,-,N/A,,Partly Cloudy,140,2013-06-16 08:53:00
5:53 AM,78.1,73.0,84,30.04,10.0,Calm,Calm,-,N/A,,Partly Cloudy,0,2013-06-16 09:53:00
6:53 AM,78.6,75.9,91,30.04,10.0,Calm,Calm,-,N/A,,Partly Cloudy,0,2013-06-16 10:53:00
7:53 AM,81.0,75.4,83,30.06,10.0,Calm,Calm,-,N/A,,Partly Cloudy,0,2013-06-16 11:53:00
8:53 AM,85.3,77.4,77,30.07,10.0,East,5.8,-,N/A,,Scattered Clouds,90,2013-06-16 12:53:00
9:53 AM,87.6,77.2,71,30.07,10.0,ESE,8.1,-,N/A,,Scattered Clouds,120,2013-06-16 13:53:00
10:53 AM,88.3,76.6,68,30.07,10.0,East,11.5,-,N/A,,Scattered Clouds,100,2013-06-16 14:53:00
11:53 AM,86.9,78.3,75,30.08,10.0,East,10.4,-,N/A,,Mostly Cloudy,90,2013-06-16 15:53:00
12:53 PM,89.6,79.0,71,30.07,10.0,ESE,11.5,-,N/A,,Mostly Cloudy,110,2013-06-16 16:53:00
1:53 PM,89.8,79.5,72,30.07,10.0,ESE,13.8,-,N/A,,Scattered Clouds,110,2013-06-16 17:53:00
2:53 PM,89.6,76.8,66,30.05,10.0,ESE,13.8,-,N/A,,Scattered Clouds,120,2013-06-16 18:53:00
3:53 PM,90.1,77.7,67,30.05,10.0,ESE,16.1,-,N/A,,Partly Cloudy,120,2013-06-16 19:53:00
4:53 PM,90.1,72.7,56,30.03,10.0,ESE,12.7,-,N/A,,Partly Cloudy,120,2013-06-16 20:53:00
5:53 PM,86.7,73.4,64,30.02,10.0,ESE,15.0,-,N/A,,Partly Cloudy,110,2013-06-16 21:53:00
6:53 PM,86.4,73.9,66,30.04,10.0,ESE,9.2,-,N/A,,Partly Cloudy,120,2013-06-16 22:53:00
7:53 PM,84.2,73.4,70,30.04,10.0,SE,12.7,-,N/A,,Partly Cloudy,140,2013-06-16 23:53:00
8:53 PM,84.9,73.4,68,30.06,10.0,ESE,10.4,-,N/A,,Partly Cloudy,110,2013-06-17 00:53:00
9:53 PM,83.5,73.4,72,30.07,10.0,SE,10.4,-,N/A,,Partly Cloudy,140,2013-06-17 01:53:00
10:53 PM,83.5,74.3,74,30.08,10.0,SE,11.5,-,N/A,,Partly Cloudy,130,2013-06-17 02:53:00
11:53 PM,82.4,75.2,79,30.09,10.0,SE,10.4,-,N/A,,Partly Cloudy,130,2013-06-17 03:53:00